FBD763 UUWW-UUWW

Flight info

Callsign FBD763
Flight time 0h 46m
Altitude 16000
Route SOTOG3Z SOTOG DCT LEKDO LEKDO3A
Aircraft B772/H-SDE2E3FGHIJ5LORVWXY/LB1D1

Departure

Time 2026-05-04 15:47
Airport Vnukovo International Airport (UUWW)

Arrival

Time 2026-05-04 16:34
Airport Vnukovo International Airport (UUWW)
Time Latitude Longitude Altitude Speed Heading
2026-05-04 15:10 55.60177 37.28376 684 ft 0 kts 355°
2026-05-04 15:39 55.60168 37.28377 678 ft 4 kts 356°
2026-05-04 15:39 55.60114 37.28376 676 ft 4 kts 11°
2026-05-04 15:40 55.60090 37.28360 676 ft 4 kts 51°
2026-05-04 15:40 55.60085 37.28344 676 ft 0 kts 84°
2026-05-04 15:44 55.60093 37.28413 677 ft 8 kts 68°
2026-05-04 15:44 55.60125 37.28489 682 ft 8 kts 49°
2026-05-04 15:44 55.60161 37.28559 678 ft 8 kts 47°
2026-05-04 15:44 55.60198 37.28628 678 ft 8 kts 47°
2026-05-04 15:45 55.60210 37.28710 678 ft 8 kts 127°
2026-05-04 15:45 55.60171 37.28781 681 ft 8 kts 135°
2026-05-04 15:45 55.60086 37.28882 684 ft 18 kts 166°
2026-05-04 15:45 55.59989 37.28921 685 ft 13 kts 167°
2026-05-04 15:46 55.59929 37.28945 685 ft 3 kts 167°
2026-05-04 15:46 55.59908 37.28954 683 ft 3 kts 166°
2026-05-04 15:46 55.59867 37.28974 685 ft 12 kts 164°
2026-05-04 15:46 55.59799 37.28983 687 ft 10 kts 216°
2026-05-04 15:47 55.59768 37.28869 691 ft 11 kts 249°
2026-05-04 15:47 55.59683 37.28482 685 ft 73 kts 248°
2026-05-04 15:47 55.59373 37.27101 723 ft 161 kts 249°
2026-05-04 15:47 55.58936 37.25191 1744 ft 169 kts 248°
2026-05-04 15:48 55.58539 37.23251 3047 ft 166 kts 251°
2026-05-04 15:48 55.57988 37.21346 3717 ft 186 kts 231°
2026-05-04 15:48 55.56082 37.17549 4858 ft 224 kts 235°
2026-05-04 15:49 55.55162 37.15345 4995 ft 227 kts 236°
2026-05-04 15:49 55.54062 37.13334 5000 ft 230 kts 223°
2026-05-04 15:49 55.52805 37.11561 5001 ft 231 kts 221°
2026-05-04 15:49 55.51545 37.09805 5000 ft 229 kts 221°
2026-05-04 15:50 55.50304 37.08055 4996 ft 230 kts 222°
2026-05-04 15:50 55.48933 37.06290 5011 ft 258 kts 212°
2026-05-04 15:50 55.47277 37.04914 5009 ft 265 kts 206°
2026-05-04 15:50 55.45561 37.03709 5152 ft 268 kts 202°
2026-05-04 15:51 55.43767 37.02743 6167 ft 271 kts 200°
2026-05-04 15:51 55.41969 37.01839 7249 ft 272 kts 200°
2026-05-04 15:51 55.40135 37.00920 8247 ft 276 kts 200°
2026-05-04 15:51 55.38260 36.99972 9195 ft 283 kts 200°
2026-05-04 15:52 55.36354 36.99001 10116 ft 288 kts 200°
2026-05-04 15:52 55.34420 36.98012 11105 ft 291 kts 200°
2026-05-04 15:52 55.33115 36.97340 11734 ft 300 kts 200°
2026-05-04 15:52 55.30278 36.95864 12390 ft 344 kts 200°
2026-05-04 15:53 55.27915 36.94636 13378 ft 359 kts 199°
2026-05-04 15:53 55.25504 36.93392 14610 ft 365 kts 199°
2026-05-04 15:53 55.23870 36.92550 15269 ft 370 kts 199°
2026-05-04 15:53 55.21389 36.91272 15840 ft 374 kts 199°
2026-05-04 15:54 55.18835 36.89954 15914 ft 399 kts 199°
2026-05-04 15:54 55.16099 36.88538 15909 ft 415 kts 198°
2026-05-04 15:54 55.13319 36.87108 15903 ft 417 kts 198°
2026-05-04 15:54 55.10535 36.85679 15892 ft 416 kts 198°
2026-05-04 15:55 55.07760 36.84256 15886 ft 416 kts 198°
2026-05-04 15:55 55.04977 36.82828 15895 ft 416 kts 198°
2026-05-04 15:55 55.02201 36.81406 15894 ft 415 kts 198°
2026-05-04 15:55 54.99427 36.79986 15898 ft 415 kts 198°
2026-05-04 15:56 54.96654 36.78568 15900 ft 415 kts 198°
2026-05-04 15:56 54.93883 36.77154 15885 ft 416 kts 198°
2026-05-04 15:56 54.91102 36.75735 15899 ft 416 kts 198°
2026-05-04 15:56 54.88329 36.74323 15898 ft 417 kts 198°
2026-05-04 15:57 54.85564 36.72918 15904 ft 417 kts 198°
2026-05-04 15:57 54.82781 36.71483 15903 ft 417 kts 199°
2026-05-04 15:57 54.80060 36.69874 15897 ft 410 kts 198°
2026-05-04 15:57 54.77176 36.69351 15908 ft 426 kts 176°
2026-05-04 15:58 54.74338 36.70759 15902 ft 429 kts 154°
2026-05-04 15:58 54.71977 36.73936 15905 ft 431 kts 131°
2026-05-04 15:58 54.70466 36.78379 15910 ft 430 kts 109°
2026-05-04 15:58 54.69814 36.83170 15891 ft 394 kts 101°
2026-05-04 15:59 54.69120 36.87635 15849 ft 378 kts 108°
2026-05-04 15:59 54.68271 36.91877 15750 ft 363 kts 110°
2026-05-04 15:59 54.67434 36.95895 15242 ft 353 kts 110°
2026-05-04 15:59 54.66603 36.99960 15052 ft 355 kts 109°
2026-05-04 16:00 54.65797 37.04021 14962 ft 359 kts 109°
2026-05-04 16:00 54.64999 37.08118 14965 ft 360 kts 108°
2026-05-04 16:00 54.64202 37.12221 14966 ft 362 kts 108°
2026-05-04 16:00 54.63456 37.16353 14917 ft 355 kts 102°
2026-05-04 16:01 54.63437 37.20594 14860 ft 356 kts 77°
2026-05-04 16:01 54.64355 37.24535 14871 ft 354 kts 55°
2026-05-04 16:01 54.65988 37.27700 14880 ft 350 kts 38°
2026-05-04 16:01 54.67972 37.29798 14668 ft 322 kts 18°
2026-05-04 16:02 54.70032 37.30909 14237 ft 309 kts 13°
2026-05-04 16:02 54.72103 37.31966 13676 ft 305 kts 14°
2026-05-04 16:02 54.76122 37.34026 12407 ft 299 kts
2026-05-04 16:03 54.78173 37.34359 11788 ft 294 kts 359°
2026-05-04 16:03 54.80210 37.34389 11228 ft 291 kts 357°
2026-05-04 16:03 54.82231 37.34392 10689 ft 289 kts 358°
2026-05-04 16:03 54.84228 37.34425 10187 ft 286 kts 358°
2026-05-04 16:04 54.86237 37.34493 9898 ft 292 kts 358°
2026-05-04 16:04 54.90346 37.34680 9912 ft 301 kts 358°
2026-05-04 16:04 54.92456 37.34785 9915 ft 305 kts 358°
2026-05-04 16:05 54.94592 37.34905 9929 ft 308 kts 358°
2026-05-04 16:05 54.96664 37.35030 9769 ft 289 kts 358°
2026-05-04 16:05 55.00469 37.35257 9525 ft 260 kts 358°
2026-05-04 16:06 55.02248 37.35360 9364 ft 252 kts 358°
2026-05-04 16:06 55.06819 37.35618 8758 ft 245 kts 358°
2026-05-04 16:07 55.09101 37.35748 8417 ft 244 kts 358°
2026-05-04 16:07 55.14167 37.36039 7685 ft 243 kts 357°
2026-05-04 16:08 55.15861 37.36135 7543 ft 245 kts 358°
2026-05-04 16:08 55.20909 37.36429 7306 ft 238 kts 358°
2026-05-04 16:09 55.24240 37.36621 6829 ft 240 kts 358°
2026-05-04 16:09 55.27659 37.36817 6691 ft 256 kts 358°
2026-05-04 16:10 55.31215 37.37029 6578 ft 248 kts 358°
2026-05-04 16:11 55.36227 37.39101 6029 ft 245 kts 12°
2026-05-04 16:11 55.37851 37.39927 5844 ft 244 kts 11°
2026-05-04 16:12 55.42713 37.42328 5409 ft 236 kts 11°
2026-05-04 16:12 55.47310 37.44547 5277 ft 221 kts 10°
2026-05-04 16:13 55.50275 37.45970 5102 ft 220 kts 10°
2026-05-04 16:13 55.53203 37.47383 4970 ft 217 kts 11°
2026-05-04 16:14 55.56070 37.48775 4986 ft 208 kts 10°
2026-05-04 16:14 55.58844 37.50072 4924 ft 201 kts
2026-05-04 16:15 55.62485 37.47983 4803 ft 171 kts 331°
2026-05-04 16:16 55.63344 37.44812 4333 ft 156 kts 250°
2026-05-04 16:16 55.62247 37.39951 4270 ft 141 kts 250°
2026-05-04 16:17 55.61441 37.36338 4280 ft 163 kts 250°
2026-05-04 16:18 55.59990 37.29846 4745 ft 202 kts 250°
2026-05-04 16:18 55.59471 37.27540 5186 ft 201 kts 250°
2026-05-04 16:19 55.57850 37.20335 5974 ft 224 kts 251°
2026-05-04 16:19 55.56690 37.15177 5997 ft 225 kts 250°
2026-05-04 16:20 55.54952 37.07541 5986 ft 219 kts 245°
2026-05-04 16:20 55.52394 37.04430 6001 ft 241 kts 199°
2026-05-04 16:21 55.47507 37.02657 5976 ft 236 kts 184°
2026-05-04 16:22 55.44752 37.05990 5999 ft 266 kts 127°
2026-05-04 16:22 55.41409 37.13989 5816 ft 262 kts 129°
2026-05-04 16:23 55.38223 37.21542 5117 ft 253 kts 129°
2026-05-04 16:24 55.34116 37.31361 4087 ft 243 kts 120°
2026-05-04 16:25 55.34378 37.37051 3463 ft 247 kts 52°
2026-05-04 16:26 55.40319 37.41236 2801 ft 222 kts 13°
2026-05-04 16:26 55.44744 37.43322 2250 ft 217 kts 14°
2026-05-04 16:27 55.47656 37.44714 2211 ft 219 kts 13°
2026-05-04 16:28 55.52040 37.46819 2195 ft 218 kts 13°
2026-05-04 16:28 55.56400 37.48933 2222 ft 214 kts 13°
2026-05-04 16:29 55.61461 37.48670 2195 ft 175 kts 335°
2026-05-04 16:30 55.63188 37.44509 2203 ft 154 kts 249°
2026-05-04 16:31 55.62504 37.41081 2133 ft 141 kts 248°
2026-05-04 16:31 55.61515 37.36664 1629 ft 125 kts 246°
2026-05-04 16:32 55.60541 37.32317 1093 ft 126 kts 248°
2026-05-04 16:33 55.59893 37.29437 794 ft 126 kts 248°
2026-05-04 16:33 55.59353 37.27031 673 ft 61 kts 249°
2026-05-04 16:34 55.59184 37.26220 673 ft 20 kts 270°
2026-05-04 16:34 55.59283 37.26148 673 ft 20 kts 39°
2026-05-04 16:35 55.59523 37.26752 673 ft 20 kts 68°
2026-05-04 16:35 55.59804 37.27317 679 ft 20 kts 46°
2026-05-04 16:36 55.59897 37.27492 676 ft 18 kts 46°
2026-05-04 16:36 55.60069 37.27812 680 ft 17 kts 43°
2026-05-04 16:37 55.60076 37.28192 681 ft 17 kts 88°
2026-05-04 16:37 55.60086 37.28338 680 ft 7 kts 72°
2026-05-04 16:37 55.60140 37.28378 682 ft 4 kts
2026-05-04 16:38 55.60178 37.28375 678 ft 0 kts 357°